Terug naar catalogus

THORAD AGENA D DEB

ActiefPO
NORAD 4733·DEBRIS·🇺🇸 United States

Gelanceerd Apr 8, 1970 vanaf Vandenberg Space Force Base

Loading…

Volgende Passages (komende 24 uur)

TLE

VersSource: Space-Track

Epoch: Sep 14, 2026, 21:50 UTC

1 04733U 70025CG  26257.90982843  .00002117  00000-0  35208-3 0  9998
2 04733  99.8960 305.3388 0089644  21.3538 339.1364 14.68962812918614

Volg THORAD AGENA D DEB in realtime met AllMySat

Download on the App Store